Regional Weather Roundup
Issued by NWS

Home | Current Version | Previous Version | Text Only | Print | Product List | Glossary Off
Versions: 1 2 3 4 5 6 7 8 9 10 11 12 13 14 15 16 17 18 19 20 21 22 23 24 25 26 27 28 29 30 31 32 33 34 35 36 37 38 39 40 41 42 43 44 45 46 47 48 49 50

000
ASUS45 KPSR 041110
RWRAZ

ARIZONA HOURLY REGIONAL WEATHER ROUNDUP
NATIONAL WEATHER SERVICE PHOENIX AZ
400 AM MST FRI SEP 04 2015

NOTE: FAIR INDICATES FEW OR NO CLOUDS BELOW 12,000 FEET WITH NO
SIGNIFICANT WEATHER AND/OR OBSTRUCTIONS TO VISIBILITY.

AZZ001>003-036-041200-
NORTHWEST ARIZONA

CITY           SKY/WX    TMP DP  RH WIND       PRES   REMARKS
BULLHEAD CITY  CLEAR     84  59  42 S15       29.74R
KINGMAN        CLEAR     69  57  65 VRB5      29.92S
$$

AZZ004>008-015-016-018-041200-
NORTH CENTRAL ARIZONA

CITY           SKY/WX    TMP DP  RH WIND       PRES   REMARKS
GRAND CANYON   MOCLDY    55  51  86 CALM      30.15R
WILLIAMS       PTCLDY    55  52  88 SE7       30.19F
PRESCOTT       PTCLDY    60  55  83 CALM      30.05F
FLAGSTAFF      MOCLDY    53  51  93 SW8       30.17F
PAYSON         CLEAR     59  55  88 CALM      30.08S
PAGE           PTCLDY    71  52  50 VRB6      29.95S
$$

AZZ009>014-017-041200-
NORTHEAST ARIZONA

CITY           SKY/WX    TMP DP  RH WIND       PRES   REMARKS
WINSLOW        MOCLDY    60  57  89 CALM      30.04S
SAINT JOHNS    CLOUDY    60  58  92 CALM      30.08F
WINDOW ROCK    LGT RAIN  56  49  77 S3        30.16S
SHOW LOW       CLOUDY    57  52  82 S6        30.14S
$$

AZZ023-041200-
GREATER PHOENIX AREA

CITY           SKY/WX    TMP DP  RH WIND       PRES   REMARKS
PHOENIX        PTCLDY    78  64  61 SE3       29.82S
BUCKEYE        CLOUDY    73  66  78 NE6       29.82S
LUKE AFB       CLEAR     77  64  64 NW5       29.81F
DEER VALLEY    CLEAR     77  59  53 N5        29.84S
SCOTTSDALE     CLEAR     75  63  66 S3        29.86S
MESA-GATEWAY   CLEAR     72  63  73 E5        29.87S
$$

AZZ027-028-041200-
SOUTHWEST MARICOPA COUNTY AND PINAL COUNTY

CITY           SKY/WX    TMP DP  RH WIND       PRES   REMARKS
CASA GRANDE    CLEAR     70  64  83 CALM      29.84S
GILA BEND      CLOUDY    77  61  57 E2        29.79S
$$

AZZ503-504-507>509-041200-
SOUTHEAST ARIZONA

CITY           SKY/WX    TMP DP  RH WIND       PRES   REMARKS
TUCSON         CLEAR     69  63  81 S7        29.94S
DAVIS-MONTHAN  CLEAR     67  64  89 SE3       29.92F
NOGALES        MOCLDY    61  58  90 E5        30.00F
SIERRA VISTA   CLOUDY    63  59  87 VRB1      30.05S
DOUGLAS        CLOUDY    63  60  90 CALM      30.02S
SAFFORD        CLOUDY    69  61  75 E5        29.94S
$$

AZZ020-021-025-026-031-041200-
SOUTHWEST ARIZONA

CITY           SKY/WX    TMP DP  RH WIND       PRES   REMARKS
YUMA           CLEAR     85  64  49 SE10      29.72S
$$

CAZ031-033-041-043-047-048-061-041200-
SOUTHERN CALIFORNIA

CITY           SKY/WX    TMP DP  RH WIND       PRES   REMARKS
DOWNTOWN L.A.  CLOUDY    68  57  68 E3        29.85S
L.A. AIRPORT   CLOUDY    67  59  75 E5        29.86S
SAN DIEGO      MOCLDY    70  58  65 CALM      29.87S
BURBANK        CLOUDY    67  57  70 SE6       29.86S
ONTARIO        CLOUDY    64  56  75 W8        29.87F
RIVERSIDE      CLOUDY    63  57  81 CALM      29.87F
PALM SPRINGS   CLEAR     76  54  46 N6        29.75F
EL CENTRO NAS  CLEAR     79  51  37 E9        29.71R
IMPERIAL       CLEAR     84  70  62 CALM      29.69R
BLYTHE         CLEAR     83  66  56 S6        29.73S
NEEDLES        CLEAR     85  60  42 S10       29.75F
$$

NVZ020-UTZ003-041200-
SOUTHERN NEVADA-UTAH

CITY           SKY/WX    TMP DP  RH WIND       PRES   REMARKS
LAS VEGAS      CLEAR     79  36  21 S3        29.74R
SALT LAKE CITY PTCLDY    74  36  25 S16       29.82R
$$

NMZ009-TXZ055-041200-
NEW MEXICO-WEST TEXAS

CITY           SKY/WX    TMP DP  RH WIND       PRES   REMARKS
ALBUQUERQUE    MOCLDY    67  49  52 S8        30.08R
EL PASO        CLOUDY    76  56  49 E6        29.97R
$$


........................KEY........................
SKY/WX - SKY CONDITION/WEATHER
TMP    - TEMPERATURE IN FAHRENHEIT
DP     - DEW POINT IN FAHRENHEIT
RH     - RELATIVE HUMIDITY IN PERCENT
WIND   - DIRECTION AND SPEED IN MILES PER HOUR (MPH)
VRB    - VARIABLE WIND DIRECTION
PRES   - MEAN SEA LEVEL PRESSURE IN INCHES OF MERCURY
         F - FALLING PRESSURE   R - RISING PRESSURE
         S - STEADY PRESSURE
VSB    - VISIBILITY IN MILES
HX     - HEAT INDEX IN FAHRENHEIT
WCI    - WIND CHILL INDEX IN FAHRENHEIT
TC     - TEMPERATURE IN CELSIUS WHICH IS ALSO KNOWN AS
         TEMPERATURE IN CENTIGRADE
AFB    - AIR FORCE BASE
         LUKE AFB IS LUKE AIR FORCE BASE
         DAVIS-MONTHAN IS DAVIS-MONTHAN AIR FORCE BASE
NAS    - NAVAL AIR STATION
         EL CENTRO NAS IS EL CENTRO NAVAL AIR STATION
N/A    - NOT AVAILABLE




USA.gov is the U.S. government's official web portal to all federal, state and local government web resources and services.